Beaver, WV

9:40 AM EST on February 23, 2017 (GMT -0500)
Raleigh County Memorial

Weather History for KBKW - May, 2014

Change the Weather History Date:

Thursday, May 8, 2014

  Actual Average Record
Temperature  
Mean Temperature 69 °F 58 °F  
Max Temperature 82 °F 69 °F 86 °F (1940)
Min Temperature 55 °F 47 °F 30 °F (1910)
Degree Days  
Heating Degree Days 0 8  
Month to date heating degree days 41 67  
Since 1 July heating degree days 5367 5176  
Cooling Degree Days 4 1  
Month to date cooling degree days 13 2  
Year to date cooling degree days 18 12  
Growing Degree Days 18 (Base 50)    
Moisture  
Dew Point 48 °F    
Average Humidity 51    
Maximum Humidity 72    
Minimum Humidity 30    
Precipitation  
Precipitation 0.00 in 0.14 in 2.00 in (1927)
Month to date precipitation 0.06 1.13  
Year to date precipitation 10.31 13.63  
Snow  
Snow 0.00 in - - ()
Month to date snowfall 0.0  
Since 1 September snowfall 76.3  
Snow Depth 0.00 in    
Sea Level Pressure  
Sea Level Pressure 30.10 in    
Wind  
Wind Speed 6 mph (SW)    
Max Wind Speed 20 mph    
Max Gust Speed 25 mph    
Visibility 10 miles    
Events      
T = Trace of Precipitation, MM = Missing Value Source: NWS Daily Summary

Daily Weather History Graph

Daily Weather History Graph

Search for Another Location

Airport or City:

Trip Planner

Search our weather history database for the weather conditions in past years. The results will help you decide how hot, cold, wet, or windy it might be!

Date:

Astronomy

May. 08, 2014 Rise Set
Actual Time 6:21 AM EDT 8:21 PM EDT
Civil Twilight 5:52 AM EDT 8:50 PM EDT
Nautical Twilight 5:17 AM EDT 9:25 PM EDT
Astronomical Twilight 4:39 AM EDT 10:03 PM EDT
Moon 2:27 PM EDT (5/8) 2:44 AM EDT (5/8)
Length of Visible Light 14h 57m
Length of Day
14h 00m
Waxing Gibbous, 64% of the Moon is Illuminated
May 8
Waxing Gibbous
May 14
Full
May 21
Last Quarter
May 28
New
Jun 5
First Quarter

Hourly Weather History & Observations

Time (EDT) Temp. Dew Point Humidity Pressure Visibility Wind Dir Wind Speed Gust Speed Precip Events Conditions
12:51 AM 64.9 °F 52.0 °F 63% 30.04 in 10.0 mi South 5.8 mph - N/A   Clear
1:51 AM 66.0 °F 48.9 °F 54% 30.03 in 10.0 mi South 6.9 mph - N/A   Clear
2:51 AM 63.0 °F 48.9 °F 60% 30.04 in 10.0 mi Calm Calm - N/A   Clear
3:51 AM 64.0 °F 50.0 °F 60% 30.04 in 10.0 mi SSW 6.9 mph - N/A   Clear
4:51 AM 60.8 °F 48.2 °F 63% 30.17 in 10.0 mi South 3.5 mph - N/A   Clear
5:51 AM 57.0 °F 48.0 °F 72% 30.10 in 10.0 mi SSW 4.6 mph - N/A   Clear
6:51 AM 57.0 °F 48.9 °F 74% 30.12 in 10.0 mi Calm Calm - N/A   Clear
7:51 AM 64.4 °F 51.8 °F 64% 30.22 in 10.0 mi Calm Calm - N/A   Clear
8:51 AM 69.1 °F 48.9 °F 49% 30.15 in 10.0 mi WSW 4.6 mph - N/A   Clear
9:51 AM 72.0 °F 48.9 °F 44% 30.16 in 10.0 mi West 9.2 mph - N/A   Clear
10:51 AM 73.0 °F 48.9 °F 42% 30.17 in 10.0 mi West 15.0 mph 25.3 mph N/A   Clear
11:51 AM 73.9 °F 50.0 °F 43% 30.16 in 10.0 mi West 8.1 mph - N/A   Clear
12:51 PM 75.9 °F 50.0 °F 40% 30.13 in 10.0 mi Variable 4.6 mph 16.1 mph N/A   Clear
1:51 PM 78.1 °F 48.0 °F 35% 30.11 in 10.0 mi WSW 13.8 mph 21.9 mph N/A   Clear
2:51 PM 80.1 °F 46.9 °F 31% 30.09 in 10.0 mi West 12.7 mph 18.4 mph N/A   Clear
3:51 PM 80.1 °F 46.9 °F 31% 30.06 in 10.0 mi Variable 5.8 mph 17.3 mph N/A   Clear
4:51 PM 81.0 °F 48.0 °F 31% 30.06 in 10.0 mi WSW 6.9 mph - N/A   Clear
5:51 PM 81.0 °F 48.0 °F 31% 30.06 in 10.0 mi West 8.1 mph - N/A   Clear
6:51 PM 81.0 °F 48.9 °F 33% 30.05 in 10.0 mi WNW 3.5 mph - N/A   Clear
7:51 PM 78.1 °F 48.0 °F 35% 30.05 in 10.0 mi WSW 5.8 mph - N/A   Clear
8:51 PM 73.9 °F 45.0 °F 35% 30.07 in 10.0 mi SW 9.2 mph - N/A   Clear
9:51 PM 70.0 °F 44.1 °F 39% 30.08 in 10.0 mi South 3.5 mph - N/A   Clear
10:51 PM 68.0 °F 44.6 °F 43% 30.18 in 10.0 mi South 3.5 mph - N/A   Clear
11:51 PM 66.0 °F 45.0 °F 47% 30.10 in 10.0 mi South 4.6 mph - N/A   Clear